Starlink 30992

operational
NORAD ID: 58524 Int'l Des: 2023-191 Owner: SPXS Country: US Constellation: starlink
LEOCIRCULAR

About Starlink 30992

Description loading...

Live Position

Loading 3D Globe...

Upcoming Passes

Altitude History

Altitude vs Time

uPlot chart will show altitude changes over time

Two-Line Element Set

1 58524U 23191S 25350.27119493 .00000664 00000-0 64233-4 0 9999
2 58524 43.0028 199.2010 0001246 265.9388 94.1312 15.02545498112893
Epoch: Dec 16, 2025 • Age: 14 hours

Current Status

Altitude 558.3 km
Velocity 7.58 km/s
Sub-Earth Point 11.50°N, 168.57°E
Launch Date Dec 7, 2023
Age 2 years
Type internet

Technical Details

Classification Payload
Mass 730.00 kg
Dry Mass 700.00 kg
Total Mass 730.00 kg
Length 0.30 m
Diameter 4.10 m
Span 29.00 m
Shape Box + pan
Manufacturer SPXS
Bus Type Starlink V2M
Phase Status In Orbit
Owner/State SPXS/US

Large Constellations

Loading constellations...